Location: Ipswich
(52.0579°N, 1.1528°E)
Time: 09:06:26
(UTC+01:00)

ISS - Pass Details

Date: 10 May 2026
Orbit: 414 x 424 km, 51.6° (Epoch: 8 May)

Event Time Altitude Azimuth Distance (km) Brightness Sun altitude
Rises 23:04:23 0° 257° (WSW) 2,350 0.2 -16.3°
Reaches altitude 10° 23:06:29 10° 255° (WSW) 1,489 -0.8 -16.5°
Maximum altitude 23:09:49 76° 170° (S) 434 -3.9 -16.7°
Enters shadow 23:12:10 18° 86° (E) 1,095 -1.9 -16.8°
